Weather History for Blakely, GA

Change the Weather History Date:

Friday, June 7, 2013

  Actual Average (KDHN) Record (KDHN)
Temperature  
Mean Temperature 76 °F 79 °F  
Max Temperature 89 °F 89 °F 100 °F (2008)
Min Temperature 64 °F 68 °F 57 °F (2011)
Cooling Degree Days 12 14  
Month to date cooling degree days 93  
Year to date cooling degree days 506  
Since 1 June cooling degree days 93  
Growing Degree Days 26 (Base 50)    
Moisture  
Dew Point 70 °F    
Average Humidity 86    
Maximum Humidity 100    
Minimum Humidity 52    
Precipitation  
Precipitation 0.00 in 0.19 in 2.43 in (2003)
Month to date precipitation 1.25  
Year to date precipitation 23.61  
Sea Level Pressure  
Sea Level Pressure 29.81 in    
Wind  
Wind Speed 3 mph (WSW)    
Max Wind Speed 14 mph    
Max Gust Speed 18 mph    
Visibility 9 miles    
Events Rain , Thunderstorm    
T = Trace of Precipitation, MM = Missing Value Source: NWS Daily Summary

Daily Weather History Graph

Daily Weather History Graph

Search for Another Location

Airport:

Trip Planner

Search our weather history database for the weather conditions in past years. The results will help you decide how hot, cold, wet, or windy it might be!

Date:

Astronomy

Jun. 07, 2013 Rise Set
Actual Time 6:34 AM EDT 8:42 PM EDT
Civil Twilight 6:06 AM EDT 9:10 PM EDT
Nautical Twilight 5:32 AM EDT 9:44 PM EDT
Astronomical Twilight 4:56 AM EDT 10:20 PM EDT
Moon 5:52 AM EDT (6/7) 7:59 PM EDT (6/7)
Length of Visible Light 15h 03m
Length of Day
14h 07m
Waning Crescent, 1% of the Moon is Illuminated
Jun 7
Waning Crescent
Jun 8
New
Jun 16
First Quarter
Jun 23
Full
Jun 30
Last Quarter

Hourly Weather History & Observations

Time (EDT) Temp. Heat Index Dew Point Humidity Pressure Visibility Wind Dir Wind Speed Gust Speed Precip Events Conditions
12:15 AM 69.8 °F - 68.0 °F 94% 29.77 in 10.0 mi Calm Calm - N/A   Overcast
12:35 AM 68.0 °F - 68.0 °F 100% 29.76 in 10.0 mi Calm Calm - N/A   Overcast
12:55 AM 68.0 °F - 68.0 °F 100% 29.76 in 10.0 mi Calm Calm - N/A   Overcast
1:15 AM 68.0 °F - 68.0 °F 100% 29.75 in 10.0 mi Calm Calm - N/A   Scattered Clouds
1:35 AM 68.0 °F - 68.0 °F 100% 29.75 in 10.0 mi Calm Calm - N/A   Scattered Clouds
1:55 AM 68.0 °F - 68.0 °F 100% 29.74 in 10.0 mi WNW 3.5 mph - N/A   Mostly Cloudy
2:15 AM 68.0 °F - 68.0 °F 100% 29.73 in 10.0 mi Calm Calm - N/A   Mostly Cloudy
2:35 AM 68.0 °F - 68.0 °F 100% 29.73 in 10.0 mi Calm Calm - N/A   Scattered Clouds
2:55 AM 66.2 °F - 66.2 °F 100% 29.72 in 10.0 mi Calm Calm - N/A   Clear
3:15 AM 66.2 °F - 66.2 °F 100% 29.71 in 7.0 mi Calm Calm - N/A   Clear
3:35 AM 64.4 °F - 64.4 °F 100% 29.72 in 5.0 mi Calm Calm - N/A   Clear
3:55 AM 64.4 °F - 64.4 °F 100% 29.72 in 1.8 mi Calm Calm - N/A   Mist
4:15 AM 64.4 °F - 64.4 °F 100% 29.72 in 2.5 mi Calm Calm - N/A   Mostly Cloudy
4:35 AM 64.4 °F - 64.4 °F 100% 29.74 in 1.2 mi Calm Calm - N/A   Overcast
5:55 AM 64.4 °F - 64.4 °F 100% 29.77 in 10.0 mi Calm Calm - N/A   Overcast
6:15 AM 64.4 °F - 64.4 °F 100% 29.77 in 10.0 mi Calm Calm - N/A   Scattered Clouds
6:35 AM 64.4 °F - 64.4 °F 100% 29.78 in 10.0 mi Calm Calm - N/A   Clear
6:55 AM 64.4 °F - 64.4 °F 100% 29.78 in 10.0 mi Calm Calm - N/A   Clear
7:15 AM 64.4 °F - 64.4 °F 100% 29.79 in 10.0 mi Calm Calm - N/A   Clear
7:35 AM 64.4 °F - 64.4 °F 100% 29.79 in 10.0 mi Calm Calm - N/A   Clear
7:55 AM 64.4 °F - 64.4 °F 100% 29.79 in 10.0 mi SSW 3.5 mph - N/A   Clear
8:15 AM 64.4 °F - 64.4 °F 100% 29.80 in 10.0 mi SW 3.5 mph - N/A   Clear
8:35 AM 66.2 °F - 64.4 °F 94% 29.81 in 10.0 mi WSW 5.8 mph - N/A   Clear
8:55 AM 68.0 °F - 64.4 °F 88% 29.82 in 10.0 mi West 3.5 mph - N/A   Clear
9:15 AM 69.8 °F - 66.2 °F 88% 29.82 in 10.0 mi WSW 6.9 mph - N/A   Clear
9:35 AM 73.4 °F - 69.8 °F 88% 29.84 in 10.0 mi WSW 9.2 mph - N/A   Scattered Clouds
9:55 AM 73.4 °F - 69.8 °F 88% 29.83 in 10.0 mi West 8.1 mph - N/A   Scattered Clouds
10:15 AM 75.2 °F - 71.6 °F 89% 29.84 in 10.0 mi SW 8.1 mph - N/A   Mostly Cloudy
10:35 AM 77.0 °F - 71.6 °F 83% 29.83 in 10.0 mi WSW 5.8 mph - N/A   Mostly Cloudy
10:55 AM 78.8 °F - 73.4 °F 83% 29.83 in 10.0 mi SSW 8.1 mph - N/A   Mostly Cloudy
11:15 AM 78.8 °F - 71.6 °F 78% 29.84 in 10.0 mi WSW 5.8 mph - N/A   Scattered Clouds
11:35 AM 80.6 °F 84.6 °F 71.6 °F 74% 29.84 in 10.0 mi SW 6.9 mph - N/A   Scattered Clouds
11:55 AM 82.4 °F 87.2 °F 71.6 °F 70% 29.84 in 10.0 mi WSW 6.9 mph - N/A   Scattered Clouds
12:15 PM 82.4 °F 87.2 °F 71.6 °F 70% 29.84 in 10.0 mi WSW 6.9 mph - N/A   Scattered Clouds
12:35 PM 84.2 °F 90.9 °F 73.4 °F 70% 29.83 in 10.0 mi SW 5.8 mph - N/A   Scattered Clouds
12:55 PM 86.0 °F 91.8 °F 71.6 °F 62% 29.83 in 10.0 mi SW 9.2 mph - N/A   Scattered Clouds
1:15 PM 87.8 °F 93.8 °F 71.6 °F 58% 29.82 in 10.0 mi WSW 10.4 mph - N/A   Clear
1:35 PM 87.8 °F 93.8 °F 71.6 °F 58% 29.82 in 10.0 mi WSW 6.9 mph - N/A   Clear
1:55 PM 87.8 °F 92.6 °F 69.8 °F 55% 29.82 in 10.0 mi WSW 10.4 mph 18.4 mph N/A   Scattered Clouds
2:15 PM 89.6 °F 94.7 °F 69.8 °F 52% 29.82 in 10.0 mi WSW 8.1 mph 16.1 mph N/A   Scattered Clouds
2:35 PM 89.6 °F 94.7 °F 69.8 °F 52% 29.82 in 10.0 mi WSW 6.9 mph - N/A   Scattered Clouds
2:55 PM 89.6 °F 94.7 °F 69.8 °F 52% 29.81 in 10.0 mi WSW 13.8 mph 18.4 mph N/A   Mostly Cloudy
3:15 PM 89.6 °F 96.2 °F 71.6 °F 55% 29.81 in 10.0 mi SW 12.7 mph 17.3 mph N/A   Mostly Cloudy
3:35 PM 89.6 °F 94.7 °F 69.8 °F 52% 29.79 in 10.0 mi WSW 12.7 mph 16.1 mph N/A   Mostly Cloudy
3:55 PM 89.6 °F 94.7 °F 69.8 °F 52% 29.79 in 10.0 mi SW 13.8 mph 17.3 mph N/A   Mostly Cloudy
4:15 PM 87.8 °F 93.8 °F 71.6 °F 58% 29.79 in 10.0 mi West 8.1 mph 16.1 mph N/A   Scattered Clouds
4:35 PM 86.0 °F 91.8 °F 71.6 °F 62% 29.81 in 10.0 mi West 8.1 mph - N/A Rain , Thunderstorm Rain
4:55 PM 78.8 °F - 77.0 °F 94% 29.80 in 7.0 mi Calm Calm - N/A Rain Light Rain
5:15 PM 82.4 °F 90.9 °F 77.0 °F 84% 29.81 in 10.0 mi WSW 8.1 mph - N/A Thunderstorm Scattered Clouds
5:35 PM 82.4 °F 89.5 °F 75.2 °F 79% 29.80 in 10.0 mi SW 4.6 mph - N/A   Clear
5:55 PM 82.4 °F 89.5 °F 75.2 °F 79% 29.80 in 10.0 mi WSW 3.5 mph - N/A   Scattered Clouds
6:15 PM 82.4 °F 88.2 °F 73.4 °F 74% 29.80 in 10.0 mi West 8.1 mph - N/A Rain Light Rain
6:35 PM 80.6 °F 85.4 °F 73.4 °F 79% 29.81 in 10.0 mi West 4.6 mph - N/A Thunderstorm Mostly Cloudy
6:55 PM 77.0 °F - 73.4 °F 89% 29.82 in 5.0 mi SW 11.5 mph 17.3 mph N/A Rain Rain
7:15 PM 77.0 °F - 73.4 °F 89% 29.81 in 10.0 mi WSW 5.8 mph - N/A   Overcast
7:35 PM 77.0 °F - 73.4 °F 89% 29.82 in 10.0 mi Calm Calm - N/A   Overcast
7:55 PM 77.0 °F - 73.4 °F 89% 29.83 in 10.0 mi Calm Calm - N/A   Mostly Cloudy
8:15 PM 77.0 °F - 73.4 °F 89% 29.84 in 10.0 mi West 4.6 mph - N/A   Mostly Cloudy
8:35 PM 77.0 °F - 73.4 °F 89% 29.84 in 10.0 mi Calm Calm - N/A   Mostly Cloudy
8:55 PM 75.2 °F - 73.4 °F 94% 29.84 in 10.0 mi Calm Calm - N/A   Overcast
9:15 PM 73.4 °F - 73.4 °F 100% 29.86 in 7.0 mi Calm Calm - N/A   Overcast
9:35 PM 71.6 °F - 71.6 °F 100% 29.86 in 10.0 mi Calm Calm - N/A   Mostly Cloudy
9:55 PM 71.6 °F - 71.6 °F 100% 29.87 in 10.0 mi Calm Calm - N/A   Mostly Cloudy
10:15 PM 71.6 °F - 71.6 °F 100% 29.88 in 7.0 mi Calm Calm - N/A   Scattered Clouds
10:35 PM 69.8 °F - 69.8 °F 100% 29.89 in 5.0 mi Calm Calm - N/A   Clear
10:55 PM 69.8 °F - 69.8 °F 100% 29.90 in 4.0 mi Calm Calm - N/A   Clear
11:15 PM 68.0 °F - 68.0 °F 100% 29.90 in 3.0 mi Calm Calm - N/A   Clear
11:35 PM 69.8 °F - 69.8 °F 100% 29.90 in 5.0 mi Calm Calm - N/A   Clear
11:55 PM 68.0 °F - 68.0 °F 100% 29.90 in 5.0 mi Calm Calm - N/A   Clear